Time,TemperatureF,DewpointF,PressureIn,WindDirection,WindDirectionDegrees,WindSpeedMPH,WindSpeedGustMPH,Humidity,HourlyPrecipIn,Conditions,Clouds,dailyrainin,SoftwareType,DateUTC
2013-02-10 00:00:00,26.3,21.3,29.04,SW,225,0.0,0.0,81,0.00,,,0.00,WUHU216HW,2013-02-10 06:00:00,
2013-02-10 00:05:00,26.3,21.3,29.04,SW,225,0.0,0.0,81,0.00,,,0.00,WUHU216HW,2013-02-10 06:05:00,
2013-02-10 00:10:00,26.3,21.3,29.04,SW,225,0.0,0.0,81,0.00,,,0.00,WUHU216HW,2013-02-10 06:10:00,
2013-02-10 00:15:00,26.1,21.1,29.04,SW,225,0.0,0.0,81,0.00,,,0.00,WUHU216HW,2013-02-10 06:15:00,
2013-02-10 00:20:00,25.9,20.6,29.04,SW,225,0.0,0.0,80,0.00,,,0.00,WUHU216HW,2013-02-10 06:20:00,
2013-02-10 00:25:00,25.9,20.6,29.03,SW,225,0.0,0.0,80,0.00,,,0.00,WUHU216HW,2013-02-10 06:25:00,
2013-02-10 00:30:00,25.7,20.4,29.03,SW,225,0.0,0.0,80,0.00,,,0.00,WUHU216HW,2013-02-10 06:30:00,
2013-02-10 00:35:00,25.6,20.5,29.03,SW,225,0.0,0.0,81,0.00,,,0.00,WUHU216HW,2013-02-10 06:35:00,
2013-02-10 00:40:00,25.6,20.5,29.04,SW,225,0.0,0.0,81,0.00,,,0.00,WUHU216HW,2013-02-10 06:40:00,
2013-02-10 00:45:00,25.6,20.5,29.03,SW,225,0.0,0.0,81,0.00,,,0.00,WUHU216HW,2013-02-10 06:45:00,
2013-02-10 00:50:00,25.6,20.8,29.03,SW,225,0.0,0.0,82,0.00,,,0.00,WUHU216HW,2013-02-10 06:50:00,
2013-02-10 00:55:00,25.4,20.7,29.03,SW,225,0.0,0.0,82,0.00,,,0.00,WUHU216HW,2013-02-10 06:55:00,
2013-02-10 01:00:00,25.4,20.7,29.03,SW,225,0.0,0.0,82,0.00,,,0.00,WUHU216HW,2013-02-10 07:00:00,
2013-02-10 01:05:00,25.2,20.5,29.03,SW,225,0.0,0.0,82,0.00,,,0.00,WUHU216HW,2013-02-10 07:05:00,
2013-02-10 01:10:00,25.2,20.5,29.03,SW,225,0.0,0.0,82,0.00,,,0.00,WUHU216HW,2013-02-10 07:10:00,
2013-02-10 01:15:00,25.2,20.5,29.02,SW,225,0.0,0.0,82,0.00,,,0.00,WUHU216HW,2013-02-10 07:15:00,
2013-02-10 01:20:00,25.2,20.5,29.02,SW,225,0.0,0.0,82,0.00,,,0.00,WUHU216HW,2013-02-10 07:20:00,
2013-02-10 01:25:00,25.2,20.8,29.02,SW,225,0.0,0.0,83,0.00,,,0.00,WUHU216HW,2013-02-10 07:25:00,
2013-02-10 01:30:00,25.2,20.8,29.02,SW,225,0.0,0.0,83,0.00,,,0.00,WUHU216HW,2013-02-10 07:30:00,
2013-02-10 01:35:00,25.2,20.8,29.01,SW,225,0.0,0.0,83,0.00,,,0.00,WUHU216HW,2013-02-10 07:35:00,
2013-02-10 01:40:00,25.2,20.8,29.01,SW,225,0.0,0.0,83,0.00,,,0.00,WUHU216HW,2013-02-10 07:40:00,
2013-02-10 01:45:00,25.4,21.0,29.01,SW,225,0.0,0.0,83,0.00,,,0.00,WUHU216HW,2013-02-10 07:45:00,
2013-02-10 01:50:00,25.4,21.3,29.01,SW,225,0.0,0.0,84,0.00,,,0.00,WUHU216HW,2013-02-10 07:50:00,
2013-02-10 01:55:00,25.6,21.4,29.00,SW,225,0.0,0.0,84,0.00,,,0.00,WUHU216HW,2013-02-10 07:55:00,
2013-02-10 02:00:00,25.6,21.4,29.00,SW,225,0.0,0.0,84,0.00,,,0.00,WUHU216HW,2013-02-10 08:00:00,
2013-02-10 02:05:00,25.6,21.4,29.00,SW,225,0.0,0.0,84,0.00,,,0.00,WUHU216HW,2013-02-10 08:05:00,
2013-02-10 02:10:00,25.6,21.4,29.00,SW,225,0.0,0.0,84,0.00,,,0.00,WUHU216HW,2013-02-10 08:10:00,
2013-02-10 02:15:00,25.6,21.4,29.00,SW,225,0.0,0.0,84,0.00,,,0.00,WUHU216HW,2013-02-10 08:15:00,
2013-02-10 02:20:00,25.6,21.4,28.99,SW,225,0.0,0.0,84,0.00,,,0.00,WUHU216HW,2013-02-10 08:20:00,
2013-02-10 02:25:00,25.6,21.4,28.99,SW,225,0.0,0.0,84,0.00,,,0.00,WUHU216HW,2013-02-10 08:25:00,
2013-02-10 02:30:00,25.6,21.4,28.99,SW,225,0.0,0.0,84,0.00,,,0.00,WUHU216HW,2013-02-10 08:30:00,
2013-02-10 02:35:00,25.6,21.4,28.99,SW,225,0.0,0.0,84,0.00,,,0.00,WUHU216HW,2013-02-10 08:35:00,
2013-02-10 02:40:00,25.6,21.4,28.98,SW,225,0.0,0.0,84,0.00,,,0.00,WUHU216HW,2013-02-10 08:40:00,
2013-02-10 02:45:00,25.6,21.4,28.98,SW,225,0.0,0.0,84,0.00,,,0.00,WUHU216HW,2013-02-10 08:45:00,
2013-02-10 02:50:00,25.6,21.4,28.98,SW,225,0.0,0.0,84,0.00,,,0.00,WUHU216HW,2013-02-10 08:50:00,
2013-02-10 02:55:00,25.6,21.4,28.97,SW,225,0.0,0.0,84,0.00,,,0.00,WUHU216HW,2013-02-10 08:55:00,
2013-02-10 03:00:00,25.6,21.4,28.97,SW,225,0.0,0.0,84,0.00,,,0.00,WUHU216HW,2013-02-10 09:00:00,
2013-02-10 03:05:00,25.6,21.4,28.97,SW,225,0.0,0.0,84,0.00,,,0.00,WUHU216HW,2013-02-10 09:05:00,
2013-02-10 03:10:00,25.7,21.5,28.97,SW,225,0.0,0.0,84,0.00,,,0.00,WUHU216HW,2013-02-10 09:10:00,
2013-02-10 03:15:00,25.7,21.5,28.96,SW,225,0.0,0.0,84,0.00,,,0.00,WUHU216HW,2013-02-10 09:15:00,
2013-02-10 03:20:00,25.7,21.5,28.96,SW,225,0.0,0.0,84,0.00,,,0.00,WUHU216HW,2013-02-10 09:20:00,
2013-02-10 03:25:00,25.7,21.5,28.96,SW,225,0.0,0.0,84,0.00,,,0.00,WUHU216HW,2013-02-10 09:25:00,
2013-02-10 03:30:00,25.7,21.5,28.95,SW,225,0.0,0.0,84,0.00,,,0.00,WUHU216HW,2013-02-10 09:30:00,
2013-02-10 03:35:00,25.7,21.5,28.95,SW,225,0.0,0.0,84,0.00,,,0.00,WUHU216HW,2013-02-10 09:35:00,
2013-02-10 03:40:00,25.9,21.7,28.95,SW,225,0.0,0.0,84,0.00,,,0.00,WUHU216HW,2013-02-10 09:40:00,
2013-02-10 03:45:00,25.9,21.7,28.95,SW,225,0.0,0.0,84,0.00,,,0.00,WUHU216HW,2013-02-10 09:45:00,
2013-02-10 03:50:00,25.9,21.7,28.95,SW,225,0.0,0.0,84,0.00,,,0.00,WUHU216HW,2013-02-10 09:50:00,
2013-02-10 03:55:00,25.9,21.7,28.94,SW,225,0.0,0.0,84,0.00,,,0.00,WUHU216HW,2013-02-10 09:55:00,
2013-02-10 04:00:00,25.9,21.7,28.95,SW,225,0.0,0.0,84,0.00,,,0.00,WUHU216HW,2013-02-10 10:00:00,
2013-02-10 04:05:00,25.9,21.7,28.94,SW,225,0.0,0.0,84,0.00,,,0.00,WUHU216HW,2013-02-10 10:05:00,
2013-02-10 04:10:00,25.9,21.7,28.94,SW,225,0.0,0.0,84,0.00,,,0.00,WUHU216HW,2013-02-10 10:10:00,
2013-02-10 04:15:00,25.9,21.7,28.94,SW,225,0.0,0.0,84,0.00,,,0.00,WUHU216HW,2013-02-10 10:15:00,
2013-02-10 04:20:00,26.1,21.9,28.95,SW,225,0.0,0.0,84,0.00,,,0.00,WUHU216HW,2013-02-10 10:20:00,
2013-02-10 04:25:00,26.3,22.1,28.94,SW,225,0.0,0.0,84,0.00,,,0.00,WUHU216HW,2013-02-10 10:25:00,
2013-02-10 04:30:00,26.3,22.1,28.94,SW,225,0.0,0.0,84,0.00,,,0.00,WUHU216HW,2013-02-10 10:30:00,
2013-02-10 04:35:00,26.3,22.1,28.94,SW,225,0.0,0.0,84,0.00,,,0.00,WUHU216HW,2013-02-10 10:35:00,
2013-02-10 04:40:00,26.5,22.5,28.94,SW,225,0.0,0.0,85,0.00,,,0.00,WUHU216HW,2013-02-10 10:40:00,
2013-02-10 04:45:00,26.5,22.5,28.94,SW,225,0.0,0.0,85,0.00,,,0.00,WUHU216HW,2013-02-10 10:45:00,
2013-02-10 04:50:00,26.6,22.7,28.94,SW,225,0.0,0.0,85,0.00,,,0.00,WUHU216HW,2013-02-10 10:50:00,
2013-02-10 04:55:00,26.6,22.7,28.94,SW,225,0.0,0.0,85,0.00,,,0.00,WUHU216HW,2013-02-10 10:55:00,
2013-02-10 05:00:00,26.8,22.9,28.94,SW,225,0.0,0.0,85,0.00,,,0.00,WUHU216HW,2013-02-10 11:00:00,
2013-02-10 05:05:00,26.8,22.9,28.93,SW,225,0.0,0.0,85,0.00,,,0.00,WUHU216HW,2013-02-10 11:05:00,
2013-02-10 05:10:00,27.0,23.0,28.93,SW,225,0.0,0.0,85,0.00,,,0.00,WUHU216HW,2013-02-10 11:10:00,
2013-02-10 05:15:00,27.0,23.0,28.93,SW,225,0.0,0.0,85,0.00,,,0.00,WUHU216HW,2013-02-10 11:15:00,
2013-02-10 05:20:00,27.0,23.0,28.93,SW,225,0.0,0.0,85,0.00,,,0.00,WUHU216HW,2013-02-10 11:20:00,
2013-02-10 05:25:00,27.0,23.0,28.92,SW,225,0.0,0.0,85,0.00,,,0.00,WUHU216HW,2013-02-10 11:25:00,
2013-02-10 05:30:00,27.2,23.2,28.91,SW,225,0.0,0.0,85,0.00,,,0.00,WUHU216HW,2013-02-10 11:30:00,
2013-02-10 05:35:00,27.2,23.2,28.91,SW,225,0.0,0.0,85,0.00,,,0.00,WUHU216HW,2013-02-10 11:35:00,
2013-02-10 05:40:00,27.4,23.4,28.91,SW,225,0.0,0.0,85,0.00,,,0.00,WUHU216HW,2013-02-10 11:40:00,
2013-02-10 05:45:00,27.4,23.4,28.91,SW,225,0.0,0.0,85,0.00,,,0.00,WUHU216HW,2013-02-10 11:45:00,
2013-02-10 05:50:00,27.4,23.4,28.92,SW,225,0.0,0.0,85,0.00,,,0.00,WUHU216HW,2013-02-10 11:50:00,
2013-02-10 05:55:00,27.5,23.6,28.91,SW,225,0.0,0.0,85,0.00,,,0.00,WUHU216HW,2013-02-10 11:55:00,
2013-02-10 06:00:00,27.5,23.6,28.91,SW,225,0.0,0.0,85,0.00,,,0.00,WUHU216HW,2013-02-10 12:00:00,
2013-02-10 06:05:00,27.7,23.8,28.91,SW,225,0.0,0.0,85,0.00,,,0.00,WUHU216HW,2013-02-10 12:05:00,
2013-02-10 06:10:00,27.7,23.8,28.90,SW,225,0.0,0.0,85,0.00,,,0.00,WUHU216HW,2013-02-10 12:10:00,
2013-02-10 06:15:00,27.7,23.8,28.90,SW,225,0.0,0.0,85,0.00,,,0.00,WUHU216HW,2013-02-10 12:15:00,
2013-02-10 06:20:00,27.9,23.9,28.89,SW,225,0.0,0.0,85,0.00,,,0.00,WUHU216HW,2013-02-10 12:20:00,
2013-02-10 06:25:00,28.1,24.1,28.88,SW,225,0.0,0.0,85,0.00,,,0.00,WUHU216HW,2013-02-10 12:25:00,
2013-02-10 06:30:00,28.1,24.1,28.88,SW,225,0.0,0.0,85,0.00,,,0.00,WUHU216HW,2013-02-10 12:30:00,
2013-02-10 06:35:00,28.1,24.1,28.88,SW,225,0.0,0.0,85,0.00,,,0.00,WUHU216HW,2013-02-10 12:35:00,
2013-02-10 06:40:00,28.3,24.6,28.88,SW,225,0.0,0.0,86,0.00,,,0.00,WUHU216HW,2013-02-10 12:40:00,
2013-02-10 06:45:00,28.4,24.8,28.87,SW,225,0.0,0.0,86,0.00,,,0.00,WUHU216HW,2013-02-10 12:45:00,
2013-02-10 06:50:00,28.4,25.0,28.88,SW,225,0.0,0.0,87,0.00,,,0.00,WUHU216HW,2013-02-10 12:50:00,
2013-02-10 06:55:00,28.6,25.2,28.88,SW,225,0.0,0.0,87,0.00,,,0.00,WUHU216HW,2013-02-10 12:55:00,
2013-02-10 07:00:00,28.6,24.9,28.87,SW,225,0.0,0.0,86,0.00,,,0.00,WUHU216HW,2013-02-10 13:00:00,
2013-02-10 07:05:00,28.8,25.1,28.86,SW,225,0.0,0.0,86,0.00,,,0.00,WUHU216HW,2013-02-10 13:05:00,
2013-02-10 07:10:00,28.8,25.1,28.85,SW,225,0.0,0.0,86,0.00,,,0.00,WUHU216HW,2013-02-10 13:10:00,
2013-02-10 07:15:00,29.0,25.3,28.84,SW,225,0.0,0.0,86,0.00,,,0.00,WUHU216HW,2013-02-10 13:15:00,
2013-02-10 07:20:00,29.2,25.5,28.84,SW,225,0.0,0.0,86,0.00,,,0.00,WUHU216HW,2013-02-10 13:20:00,
2013-02-10 07:25:00,29.2,25.5,28.84,SW,225,0.0,0.0,86,0.00,,,0.00,WUHU216HW,2013-02-10 13:25:00,
2013-02-10 07:30:00,29.5,26.1,28.83,SW,225,0.0,0.0,87,0.00,,,0.00,WUHU216HW,2013-02-10 13:30:00,
2013-02-10 07:35:00,29.9,26.5,28.82,SW,225,0.0,0.0,87,0.00,,,0.00,WUHU216HW,2013-02-10 13:35:00,
2013-02-10 07:40:00,30.2,27.2,28.81,SW,225,0.0,0.0,88,0.00,,,0.00,WUHU216HW,2013-02-10 13:40:00,
2013-02-10 07:45:00,30.6,27.6,28.81,SW,225,0.0,0.0,88,0.00,,,0.00,WUHU216HW,2013-02-10 13:45:00,
2013-02-10 07:50:00,31.0,27.9,28.80,SW,225,0.0,0.0,88,0.00,,,0.00,WUHU216HW,2013-02-10 13:50:00,
2013-02-10 07:55:00,31.3,28.3,28.81,SW,225,0.0,0.0,88,0.00,,,0.00,WUHU216HW,2013-02-10 13:55:00,
2013-02-10 08:00:00,31.5,28.5,28.81,SW,225,0.0,0.0,88,0.00,,,0.00,WUHU216HW,2013-02-10 14:00:00,
2013-02-10 08:05:00,31.9,29.1,28.81,SW,225,0.0,0.0,89,0.00,,,0.00,WUHU216HW,2013-02-10 14:05:00,
2013-02-10 08:10:00,32.0,29.0,28.84,SW,225,0.0,0.0,88,0.00,,,0.00,WUHU216HW,2013-02-10 14:10:00,
2013-02-10 08:15:00,32.4,29.5,28.83,SW,225,0.0,0.0,89,0.00,,,0.00,WUHU216HW,2013-02-10 14:15:00,
2013-02-10 08:20:00,32.6,29.7,28.82,SW,225,0.0,0.0,89,0.00,,,0.00,WUHU216HW,2013-02-10 14:20:00,
2013-02-10 08:25:00,32.8,29.9,28.82,SW,225,0.0,0.0,89,0.00,,,0.00,WUHU216HW,2013-02-10 14:25:00,
2013-02-10 08:30:00,32.8,29.9,28.81,SW,225,0.0,0.0,89,0.00,,,0.00,WUHU216HW,2013-02-10 14:30:00,
2013-02-10 08:35:00,32.8,29.9,28.81,SW,225,0.0,0.0,89,0.00,,,0.00,WUHU216HW,2013-02-10 14:35:00,
2013-02-10 08:40:00,32.9,30.1,28.81,SW,225,0.0,0.0,89,0.00,,,0.00,WUHU216HW,2013-02-10 14:40:00,
2013-02-10 08:45:00,33.1,30.3,28.80,SW,225,0.0,0.0,89,0.00,,,0.00,WUHU216HW,2013-02-10 14:45:00,
2013-02-10 08:50:00,33.1,30.3,28.80,SSW,203,0.0,0.0,89,0.00,,,0.00,WUHU216HW,2013-02-10 14:50:00,
2013-02-10 08:55:00,33.1,30.3,28.78,NW,315,0.0,0.0,89,0.00,,,0.00,WUHU216HW,2013-02-10 14:55:00,
2013-02-10 09:00:00,33.5,30.5,28.78,NNE,23,0.2,0.2,89,0.00,,,0.00,WUHU216HW,2013-02-10 15:00:00,
2013-02-10 09:05:00,33.5,30.5,28.78,South,180,0.9,1.3,89,0.00,,,0.00,WUHU216HW,2013-02-10 15:05:00,
2013-02-10 09:10:00,33.7,30.7,28.78,SSE,158,1.6,1.6,89,0.00,,,0.00,WUHU216HW,2013-02-10 15:10:00,
2013-02-10 09:15:00,33.7,30.7,28.78,SSW,203,0.4,2.5,89,0.00,,,0.00,WUHU216HW,2013-02-10 15:15:00,
2013-02-10 09:20:00,33.8,30.9,28.77,SSE,158,3.4,3.4,89,0.00,,,0.00,WUHU216HW,2013-02-10 15:20:00,
2013-02-10 09:25:00,34.0,31.1,28.78,SSW,203,0.2,3.4,89,0.00,,,0.00,WUHU216HW,2013-02-10 15:25:00,
2013-02-10 09:30:00,34.0,31.1,28.77,South,180,0.4,3.4,89,0.00,,,0.00,WUHU216HW,2013-02-10 15:30:00,
2013-02-10 09:35:00,34.2,31.2,28.76,NNW,338,0.2,1.8,89,0.00,,,0.00,WUHU216HW,2013-02-10 15:35:00,
2013-02-10 09:40:00,34.2,31.2,28.76,SSW,203,0.4,1.8,89,0.00,,,0.00,WUHU216HW,2013-02-10 15:40:00,
2013-02-10 09:45:00,34.2,31.2,28.76,SE,135,0.4,1.8,89,0.00,,,0.00,WUHU216HW,2013-02-10 15:45:00,
2013-02-10 09:50:00,34.2,31.2,28.76,SW,225,0.2,1.1,89,0.00,,,0.00,WUHU216HW,2013-02-10 15:50:00,
2013-02-10 09:55:00,34.2,31.2,28.76,NNE,23,0.4,1.3,89,0.00,,,0.00,WUHU216HW,2013-02-10 15:55:00,
2013-02-10 10:00:00,34.2,31.2,28.76,SSE,158,0.9,1.3,89,0.00,,,0.00,WUHU216HW,2013-02-10 16:00:00,
2013-02-10 10:05:00,34.4,31.4,28.75,North,0,0.4,0.9,89,0.00,,,0.00,WUHU216HW,2013-02-10 16:05:00,
2013-02-10 10:10:00,34.4,31.4,28.75,West,270,0.7,0.9,89,0.00,,,0.00,WUHU216HW,2013-02-10 16:10:00,
2013-02-10 10:15:00,34.4,31.4,28.75,SW,225,0.4,1.8,89,0.00,,,0.00,WUHU216HW,2013-02-10 16:15:00,
2013-02-10 10:20:00,34.6,31.6,28.74,South,180,0.7,1.8,89,0.00,,,0.00,WUHU216HW,2013-02-10 16:20:00,
2013-02-10 10:25:00,34.7,31.8,28.74,East,90,0.0,2.0,89,0.00,,,0.00,WUHU216HW,2013-02-10 16:25:00,
2013-02-10 10:30:00,34.9,32.0,28.73,NW,315,0.4,2.0,89,0.00,,,0.00,WUHU216HW,2013-02-10 16:30:00,
2013-02-10 10:35:00,34.9,32.0,28.72,ESE,113,0.2,2.5,89,0.00,,,0.00,WUHU216HW,2013-02-10 16:35:00,
2013-02-10 10:40:00,35.3,32.3,28.71,SSE,158,0.7,2.5,89,0.00,,,0.00,WUHU216HW,2013-02-10 16:40:00,
2013-02-10 10:45:00,35.3,32.3,28.70,WSW,248,1.1,1.1,89,0.00,,,0.00,WUHU216HW,2013-02-10 16:45:00,
2013-02-10 10:50:00,35.5,32.5,28.69,North,0,0.7,1.3,89,0.00,,,0.00,WUHU216HW,2013-02-10 16:50:00,
2013-02-10 10:55:00,35.5,32.5,28.68,NNW,338,0.4,3.4,89,0.00,,,0.00,WUHU216HW,2013-02-10 16:55:00,
2013-02-10 11:00:00,35.5,32.5,28.68,South,180,0.9,3.4,89,0.00,,,0.00,WUHU216HW,2013-02-10 17:00:00,
2013-02-10 11:05:00,35.6,32.7,28.68,SE,135,0.7,4.5,89,0.00,,,0.00,WUHU216HW,2013-02-10 17:05:00,
2013-02-10 11:10:00,35.6,32.7,28.68,SSE,158,2.5,4.5,89,0.00,,,0.00,WUHU216HW,2013-02-10 17:10:00,
2013-02-10 11:15:00,35.6,32.9,28.67,SSE,158,1.8,2.5,90,0.00,,,0.00,WUHU216HW,2013-02-10 17:15:00,
2013-02-10 11:20:00,35.8,32.9,28.67,SSE,158,2.0,3.1,89,0.00,,,0.00,WUHU216HW,2013-02-10 17:20:00,
2013-02-10 11:25:00,36.0,33.0,28.66,SE,135,0.9,3.1,89,0.00,,,0.00,WUHU216HW,2013-02-10 17:25:00,
2013-02-10 11:30:00,36.0,33.0,28.66,SSE,158,1.1,2.5,89,0.00,,,0.00,WUHU216HW,2013-02-10 17:30:00,
2013-02-10 11:35:00,36.0,33.0,28.66,South,180,2.0,2.7,89,0.00,,,0.00,WUHU216HW,2013-02-10 17:35:00,
2013-02-10 11:40:00,36.2,33.5,28.64,East,90,0.4,2.7,90,0.00,,,0.00,WUHU216HW,2013-02-10 17:40:00,
2013-02-10 11:45:00,36.2,33.5,28.64,SE,135,3.8,3.8,90,0.00,,,0.00,WUHU216HW,2013-02-10 17:45:00,
2013-02-10 11:50:00,36.2,33.5,28.63,SE,135,1.1,3.8,90,0.00,,,0.00,WUHU216HW,2013-02-10 17:50:00,
2013-02-10 11:55:00,36.4,33.7,28.63,SE,135,0.9,3.8,90,0.00,,,0.00,WUHU216HW,2013-02-10 17:55:00,
2013-02-10 12:00:00,36.4,33.7,28.63,SE,135,2.0,3.8,90,0.00,,,0.00,WUHU216HW,2013-02-10 18:00:00,
2013-02-10 12:05:00,36.5,33.8,28.62,SE,135,0.7,2.9,90,0.00,,,0.00,WUHU216HW,2013-02-10 18:05:00,
2013-02-10 12:10:00,36.5,33.8,28.60,East,90,0.7,2.5,90,0.00,,,0.00,WUHU216HW,2013-02-10 18:10:00,
2013-02-10 12:15:00,36.5,33.8,28.60,ESE,113,0.9,2.7,90,0.00,,,0.00,WUHU216HW,2013-02-10 18:15:00,
2013-02-10 12:20:00,36.5,33.8,28.60,SSE,158,2.5,2.7,90,0.00,,,0.00,WUHU216HW,2013-02-10 18:20:00,
2013-02-10 12:25:00,36.7,34.0,28.59,SE,135,2.2,3.4,90,0.00,,,0.00,WUHU216HW,2013-02-10 18:25:00,
2013-02-10 12:30:00,36.7,34.0,28.58,SE,135,0.9,3.4,90,0.00,,,0.00,WUHU216HW,2013-02-10 18:30:00,
2013-02-10 12:35:00,36.9,34.2,28.58,ESE,113,1.1,2.7,90,0.00,,,0.00,WUHU216HW,2013-02-10 18:35:00,
2013-02-10 12:40:00,36.9,34.2,28.57,SE,135,3.4,3.4,90,0.00,,,0.00,WUHU216HW,2013-02-10 18:40:00,
2013-02-10 12:45:00,36.9,34.2,28.57,SE,135,1.8,3.4,90,0.00,,,0.00,WUHU216HW,2013-02-10 18:45:00,
2013-02-10 12:50:00,36.9,34.2,28.56,NNE,23,2.2,3.4,90,0.00,,,0.00,WUHU216HW,2013-02-10 18:50:00,
2013-02-10 12:55:00,36.9,34.2,28.55,SE,135,1.3,3.4,90,0.00,,,0.00,WUHU216HW,2013-02-10 18:55:00,
2013-02-10 13:00:00,36.9,34.2,28.55,ESE,113,2.2,2.5,90,0.00,,,0.00,WUHU216HW,2013-02-10 19:00:00,
2013-02-10 13:05:00,37.1,34.4,28.54,SSE,158,3.1,6.9,90,0.00,,,0.00,WUHU216HW,2013-02-10 19:05:00,
2013-02-10 13:10:00,37.1,34.4,28.53,SE,135,1.6,6.9,90,0.00,,,0.00,WUHU216HW,2013-02-10 19:10:00,
2013-02-10 13:15:00,37.3,34.6,28.53,SSE,158,2.0,4.5,90,0.00,,,0.00,WUHU216HW,2013-02-10 19:15:00,
2013-02-10 13:20:00,37.4,34.7,28.53,SE,135,1.8,4.5,90,0.00,,,0.00,WUHU216HW,2013-02-10 19:20:00,
2013-02-10 13:25:00,37.4,34.7,28.53,SE,135,1.8,4.0,90,0.00,,,0.00,WUHU216HW,2013-02-10 19:25:00,
2013-02-10 13:30:00,37.4,34.7,28.52,SE,135,1.8,4.0,90,0.00,,,0.00,WUHU216HW,2013-02-10 19:30:00,
2013-02-10 13:35:00,37.6,34.9,28.52,SE,135,0.7,2.9,90,0.00,,,0.00,WUHU216HW,2013-02-10 19:35:00,
2013-02-10 13:40:00,37.8,35.1,28.51,SSE,158,2.5,2.9,90,0.00,,,0.00,WUHU216HW,2013-02-10 19:40:00,
2013-02-10 13:45:00,37.8,35.1,28.51,SE,135,3.4,3.4,90,0.00,,,0.00,WUHU216HW,2013-02-10 19:45:00,
2013-02-10 13:50:00,38.0,35.3,28.51,SSE,158,3.4,3.4,90,0.00,,,0.00,WUHU216HW,2013-02-10 19:50:00,
2013-02-10 13:55:00,38.0,35.3,28.52,SSE,158,2.5,3.4,90,0.00,,,0.00,WUHU216HW,2013-02-10 19:55:00,
2013-02-10 14:00:00,38.2,35.5,28.51,SSE,158,2.5,3.4,90,0.00,,,0.00,WUHU216HW,2013-02-10 20:00:00,
2013-02-10 14:05:00,38.3,35.6,28.51,SE,135,1.8,3.4,90,0.00,,,0.00,WUHU216HW,2013-02-10 20:05:00,
2013-02-10 14:10:00,38.5,35.8,28.51,SE,135,2.7,4.0,90,0.00,,,0.00,WUHU216HW,2013-02-10 20:10:00,
2013-02-10 14:15:00,38.7,36.0,28.50,SE,135,1.3,4.0,90,0.00,,,0.00,WUHU216HW,2013-02-10 20:15:00,
2013-02-10 14:20:00,38.9,36.2,28.50,SSE,158,1.1,4.0,90,0.00,,,0.00,WUHU216HW,2013-02-10 20:20:00,
2013-02-10 14:25:00,38.9,36.2,28.50,SSE,158,3.6,3.8,90,0.00,,,0.00,WUHU216HW,2013-02-10 20:25:00,
2013-02-10 14:30:00,39.1,36.6,28.50,SE,135,2.2,5.4,91,0.00,,,0.00,WUHU216HW,2013-02-10 20:30:00,
2013-02-10 14:35:00,39.1,36.6,28.49,SE,135,1.1,6.7,91,0.00,,,0.00,WUHU216HW,2013-02-10 20:35:00,
2013-02-10 14:40:00,39.1,36.6,28.50,SE,135,2.5,6.7,91,0.00,,,0.00,WUHU216HW,2013-02-10 20:40:00,
2013-02-10 14:45:00,39.1,36.6,28.49,ESE,113,2.2,5.6,91,0.00,,,0.00,WUHU216HW,2013-02-10 20:45:00,
2013-02-10 14:50:00,39.1,36.6,28.49,SE,135,2.2,5.8,91,0.00,,,0.00,WUHU216HW,2013-02-10 20:50:00,
2013-02-10 14:55:00,39.1,36.6,28.49,ESE,113,2.5,6.3,91,0.00,,,0.00,WUHU216HW,2013-02-10 20:55:00,
2013-02-10 15:00:00,39.1,36.6,28.48,SE,135,3.8,6.3,91,0.00,,,0.00,WUHU216HW,2013-02-10 21:00:00,
2013-02-10 15:05:00,39.2,36.8,28.47,SE,135,3.4,6.0,91,0.00,,,0.00,WUHU216HW,2013-02-10 21:05:00,
2013-02-10 15:10:00,39.1,36.6,28.47,ESE,113,2.7,4.5,91,0.00,,,0.00,WUHU216HW,2013-02-10 21:10:00,
2013-02-10 15:15:00,39.1,36.6,28.47,ESE,113,1.8,4.5,91,0.00,,,0.00,WUHU216HW,2013-02-10 21:15:00,
2013-02-10 15:20:00,39.2,36.8,28.47,SSE,158,1.1,4.3,91,0.00,,,0.00,WUHU216HW,2013-02-10 21:20:00,
2013-02-10 15:25:00,39.2,36.8,28.47,ESE,113,2.2,4.0,91,0.00,,,0.00,WUHU216HW,2013-02-10 21:25:00,
2013-02-10 15:30:00,39.2,36.8,28.47,SE,135,3.1,5.1,91,0.00,,,0.00,WUHU216HW,2013-02-10 21:30:00,
2013-02-10 15:35:00,39.2,36.8,28.47,South,180,2.7,5.1,91,0.00,,,0.00,WUHU216HW,2013-02-10 21:35:00,
2013-02-10 15:40:00,39.2,36.8,28.46,SE,135,1.3,4.0,91,0.00,,,0.00,WUHU216HW,2013-02-10 21:40:00,
2013-02-10 15:45:00,39.2,36.8,28.46,SE,135,1.8,5.1,91,0.00,,,0.00,WUHU216HW,2013-02-10 21:45:00,
2013-02-10 15:50:00,39.4,37.0,28.47,SE,135,1.3,5.1,91,0.00,,,0.00,WUHU216HW,2013-02-10 21:50:00,
2013-02-10 15:55:00,39.4,37.0,28.46,SSE,158,1.3,4.3,91,0.00,,,0.00,WUHU216HW,2013-02-10 21:55:00,
2013-02-10 16:00:00,39.4,37.0,28.47,SE,135,2.5,4.3,91,0.00,,,0.00,WUHU216HW,2013-02-10 22:00:00,
2013-02-10 16:05:00,39.4,37.0,28.46,SSE,158,5.4,5.4,91,0.00,,,0.00,WUHU216HW,2013-02-10 22:05:00,
2013-02-10 16:10:00,39.4,37.0,28.46,SE,135,1.1,5.4,91,0.00,,,0.00,WUHU216HW,2013-02-10 22:10:00,
2013-02-10 16:15:00,39.4,37.0,28.46,SE,135,2.0,5.4,91,0.00,,,0.00,WUHU216HW,2013-02-10 22:15:00,
2013-02-10 16:20:00,39.4,37.0,28.46,SE,135,1.1,3.8,91,0.00,,,0.00,WUHU216HW,2013-02-10 22:20:00,
2013-02-10 16:25:00,39.6,37.2,28.46,SE,135,2.0,4.0,91,0.00,,,0.00,WUHU216HW,2013-02-10 22:25:00,
2013-02-10 16:30:00,39.6,37.2,28.46,SE,135,2.0,4.5,91,0.00,,,0.00,WUHU216HW,2013-02-10 22:30:00,
2013-02-10 16:35:00,39.6,37.2,28.46,SE,135,1.1,4.5,91,0.00,,,0.00,WUHU216HW,2013-02-10 22:35:00,
2013-02-10 16:40:00,39.6,37.2,28.46,ESE,113,0.9,5.1,91,0.00,,,0.00,WUHU216HW,2013-02-10 22:40:00,
2013-02-10 16:45:00,39.8,37.4,28.46,SE,135,3.6,5.1,91,0.00,,,0.00,WUHU216HW,2013-02-10 22:45:00,
2013-02-10 16:50:00,39.8,37.4,28.45,SE,135,3.4,3.6,91,0.00,,,0.00,WUHU216HW,2013-02-10 22:50:00,
2013-02-10 16:55:00,39.8,37.4,28.45,SE,135,5.1,5.4,91,0.00,,,0.00,WUHU216HW,2013-02-10 22:55:00,
2013-02-10 17:00:00,40.0,37.5,28.45,SSE,158,1.8,5.4,91,0.00,,,0.00,WUHU216HW,2013-02-10 23:00:00,
2013-02-10 17:05:00,40.0,37.5,28.45,SE,135,1.3,5.1,91,0.00,,,0.00,WUHU216HW,2013-02-10 23:05:00,
2013-02-10 17:10:00,39.8,37.4,28.45,SE,135,1.3,4.0,91,0.00,,,0.00,WUHU216HW,2013-02-10 23:10:00,
2013-02-10 17:15:00,39.8,37.4,28.44,ESE,113,2.0,3.6,91,0.00,,,0.00,WUHU216HW,2013-02-10 23:15:00,
2013-02-10 17:20:00,39.8,37.4,28.44,SE,135,1.6,4.0,91,0.00,,,0.00,WUHU216HW,2013-02-10 23:20:00,
2013-02-10 17:25:00,39.8,37.4,28.44,SE,135,1.3,4.3,91,0.00,,,0.00,WUHU216HW,2013-02-10 23:25:00,
2013-02-10 17:30:00,39.6,37.2,28.44,SE,135,2.7,4.3,91,0.00,,,0.00,WUHU216HW,2013-02-10 23:30:00,
2013-02-10 17:35:00,39.6,37.2,28.44,SE,135,1.3,2.7,91,0.00,,,0.00,WUHU216HW,2013-02-10 23:35:00,
2013-02-10 17:40:00,39.6,37.2,28.44,SE,135,1.8,4.7,91,0.00,,,0.00,WUHU216HW,2013-02-10 23:40:00,
2013-02-10 17:45:00,39.6,37.2,28.44,SE,135,2.5,4.7,91,0.00,,,0.00,WUHU216HW,2013-02-10 23:45:00,
2013-02-10 17:50:00,39.6,37.2,28.44,SE,135,3.6,3.6,91,0.00,,,0.00,WUHU216HW,2013-02-10 23:50:00,
2013-02-10 17:55:00,39.6,37.2,28.43,SE,135,2.2,4.0,91,0.00,,,0.00,WUHU216HW,2013-02-10 23:55:00,
2013-02-10 18:00:00,39.6,37.4,28.43,SE,135,2.2,4.0,92,0.00,,,0.00,WUHU216HW,2013-02-11 00:00:00,
2013-02-10 18:05:00,39.8,37.6,28.43,SE,135,2.0,3.4,92,0.00,,,0.00,WUHU216HW,2013-02-11 00:05:00,
2013-02-10 18:10:00,39.6,37.4,28.43,SE,135,4.0,4.0,92,0.00,,,0.00,WUHU216HW,2013-02-11 00:10:00,
2013-02-10 18:15:00,39.8,37.6,28.43,SSE,158,1.1,5.8,92,0.00,,,0.00,WUHU216HW,2013-02-11 00:15:00,
2013-02-10 18:20:00,40.0,37.8,28.42,SSE,158,1.1,5.8,92,0.00,,,0.00,WUHU216HW,2013-02-11 00:20:00,
2013-02-10 18:25:00,40.0,37.8,28.42,SSE,158,2.2,3.4,92,0.00,,,0.00,WUHU216HW,2013-02-11 00:25:00,
2013-02-10 18:30:00,40.1,38.0,28.42,SSE,158,1.6,3.8,92,0.00,,,0.00,WUHU216HW,2013-02-11 00:30:00,
2013-02-10 18:35:00,40.3,38.2,28.41,SE,135,1.3,4.7,92,0.00,,,0.00,WUHU216HW,2013-02-11 00:35:00,
2013-02-10 18:40:00,40.5,38.3,28.41,ESE,113,1.6,4.7,92,0.00,,,0.00,WUHU216HW,2013-02-11 00:40:00,
2013-02-10 18:45:00,40.5,38.3,28.42,SE,135,2.2,4.7,92,0.00,,,0.00,WUHU216HW,2013-02-11 00:45:00,
2013-02-10 18:50:00,40.5,38.3,28.41,SE,135,1.3,5.4,92,0.00,,,0.00,WUHU216HW,2013-02-11 00:50:00,
2013-02-10 18:55:00,40.5,38.3,28.41,SSE,158,3.6,5.4,92,0.00,,,0.00,WUHU216HW,2013-02-11 00:55:00,
2013-02-10 19:00:00,40.5,38.3,28.41,SE,135,1.8,5.1,92,0.00,,,0.00,WUHU216HW,2013-02-11 01:00:00,
2013-02-10 19:05:00,40.7,38.5,28.41,South,180,4.7,5.1,92,0.00,,,0.00,WUHU216HW,2013-02-11 01:05:00,
2013-02-10 19:10:00,40.9,38.7,28.41,SSE,158,3.4,5.8,92,0.00,,,0.00,WUHU216HW,2013-02-11 01:10:00,
2013-02-10 19:15:00,41.0,38.9,28.41,SE,135,3.6,5.8,92,0.00,,,0.00,WUHU216HW,2013-02-11 01:15:00,
2013-02-10 19:20:00,41.2,39.1,28.40,East,90,4.7,5.1,92,0.00,,,0.00,WUHU216HW,2013-02-11 01:20:00,
2013-02-10 19:25:00,41.4,39.2,28.41,SE,135,1.8,6.9,92,0.00,,,0.00,WUHU216HW,2013-02-11 01:25:00,
2013-02-10 19:30:00,41.4,39.2,28.40,SE,135,2.7,6.9,92,0.00,,,0.00,WUHU216HW,2013-02-11 01:30:00,
2013-02-10 19:35:00,41.4,39.2,28.40,ESE,113,3.1,4.7,92,0.00,,,0.00,WUHU216HW,2013-02-11 01:35:00,
2013-02-10 19:40:00,41.4,39.2,28.40,SSE,158,2.5,6.3,92,0.00,,,0.00,WUHU216HW,2013-02-11 01:40:00,
2013-02-10 19:45:00,41.6,39.4,28.40,SSE,158,5.4,6.3,92,0.00,,,0.00,WUHU216HW,2013-02-11 01:45:00,
2013-02-10 19:48:00,41.6,39.4,28.40,ESE,113,4.0,6.3,92,0.00,,,0.00,WUHU216HW,2013-02-11 01:48:00,
2013-02-10 19:49:00,41.6,39.4,28.40,SE,135,3.6,6.3,92,0.00,,,0.00,WUHU216HW,2013-02-11 01:49:00,
2013-02-10 19:50:00,41.6,39.4,28.40,SSE,158,3.4,5.4,92,0.00,,,0.00,WUHU216HW,2013-02-11 01:50:00,
2013-02-10 19:51:00,41.6,39.4,28.40,SSE,158,2.9,5.4,92,0.00,,,0.00,WUHU216HW,2013-02-11 01:51:00,
2013-02-10 19:52:00,41.6,39.4,28.40,ESE,113,2.9,5.4,92,0.00,,,0.00,WUHU216HW,2013-02-11 01:52:00,
2013-02-10 19:53:00,41.8,39.6,28.40,ESE,113,2.0,5.4,92,0.00,,,0.00,WUHU216HW,2013-02-11 01:53:00,
2013-02-10 19:54:00,41.8,39.6,28.40,SSE,158,3.4,5.4,92,0.00,,,0.00,WUHU216HW,2013-02-11 01:54:00,
2013-02-10 19:55:00,41.8,39.6,28.40,SE,135,2.5,5.4,92,0.00,,,0.00,WUHU216HW,2013-02-11 01:55:00,
2013-02-10 19:56:00,41.8,39.6,28.40,SE,135,2.0,4.0,92,0.00,,,0.00,WUHU216HW,2013-02-11 01:56:00,
2013-02-10 19:57:00,41.9,39.8,28.40,ESE,113,2.0,4.0,92,0.00,,,0.00,WUHU216HW,2013-02-11 01:57:00,
2013-02-10 19:58:00,41.9,39.8,28.40,SSE,158,2.9,4.0,92,0.00,,,0.00,WUHU216HW,2013-02-11 01:58:00,
2013-02-10 19:59:00,41.9,39.8,28.40,SSE,158,3.4,6.9,92,0.00,,,0.00,WUHU216HW,2013-02-11 01:59:00,
2013-02-10 20:00:00,41.9,39.8,28.40,SE,135,1.6,6.9,92,0.00,,,0.00,WUHU216HW,2013-02-11 02:00:00,
2013-02-10 20:01:00,42.1,40.0,28.40,SE,135,4.9,8.5,92,0.00,,,0.00,WUHU216HW,2013-02-11 02:01:00,
2013-02-10 20:02:00,41.9,39.8,28.40,SW,225,4.3,8.5,92,0.00,,,0.00,WUHU216HW,2013-02-11 02:02:00,
2013-02-10 20:03:00,42.1,40.0,28.40,ESE,113,2.0,8.5,92,0.00,,,0.00,WUHU216HW,2013-02-11 02:03:00,
2013-02-10 20:04:00,42.1,40.0,28.40,SSE,158,5.8,8.5,92,0.00,,,0.00,WUHU216HW,2013-02-11 02:04:00,
2013-02-10 20:05:00,42.1,40.0,28.40,SE,135,5.1,8.5,92,0.00,,,0.00,WUHU216HW,2013-02-11 02:05:00,
2013-02-10 20:06:00,42.1,40.0,28.40,SE,135,2.7,8.5,92,0.00,,,0.00,WUHU216HW,2013-02-11 02:06:00,
2013-02-10 20:07:00,42.1,40.0,28.40,SSE,158,2.9,8.5,92,0.00,,,0.00,WUHU216HW,2013-02-11 02:07:00,
2013-02-10 20:08:00,42.1,40.0,28.40,SSE,158,6.3,8.5,92,0.00,,,0.00,WUHU216HW,2013-02-11 02:08:00,
2013-02-10 20:09:00,42.1,40.0,28.40,SE,135,2.5,8.5,92,0.00,,,0.00,WUHU216HW,2013-02-11 02:09:00,
2013-02-10 20:10:00,42.1,40.0,28.40,SE,135,4.3,8.5,92,0.00,,,0.00,WUHU216HW,2013-02-11 02:10:00,
2013-02-10 20:11:00,42.1,40.0,28.40,SSE,158,4.3,6.3,92,0.00,,,0.00,WUHU216HW,2013-02-11 02:11:00,
2013-02-10 20:12:00,42.1,40.0,28.40,South,180,3.4,6.3,92,0.00,,,0.00,WUHU216HW,2013-02-11 02:12:00,
2013-02-10 20:13:00,42.1,40.0,28.40,SSE,158,2.7,6.3,92,0.00,,,0.00,WUHU216HW,2013-02-11 02:13:00,
2013-02-10 20:14:00,42.1,40.0,28.40,SE,135,3.4,6.3,92,0.00,,,0.00,WUHU216HW,2013-02-11 02:14:00,
2013-02-10 20:19:00,42.1,40.0,28.40,SE,135,3.8,6.3,92,0.00,,,0.00,WUHU216HW,2013-02-11 02:19:00,
2013-02-10 20:24:00,42.1,40.0,28.40,SSE,158,5.4,5.4,92,0.00,,,0.00,WUHU216HW,2013-02-11 02:24:00,
2013-02-10 20:29:00,42.1,40.0,28.40,ESE,113,2.7,5.8,92,0.00,,,0.00,WUHU216HW,2013-02-11 02:29:00,
2013-02-10 20:34:00,42.1,40.0,28.40,SSE,158,2.9,5.8,92,0.00,,,0.00,WUHU216HW,2013-02-11 02:34:00,
2013-02-10 20:39:00,42.3,40.1,28.40,SE,135,3.1,6.5,92,0.00,,,0.00,WUHU216HW,2013-02-11 02:39:00,
2013-02-10 20:44:00,42.3,40.1,28.40,SSE,158,3.8,6.5,92,0.00,,,0.00,WUHU216HW,2013-02-11 02:44:00,
2013-02-10 20:49:00,42.5,40.3,28.40,West,270,4.5,4.9,92,0.00,,,0.00,WUHU216HW,2013-02-11 02:49:00,
2013-02-10 20:54:00,42.3,40.1,28.40,WSW,248,2.5,5.6,92,0.00,,,0.00,WUHU216HW,2013-02-11 02:54:00,
2013-02-10 20:59:00,42.3,40.1,28.40,SSE,158,2.5,5.6,92,0.00,,,0.00,WUHU216HW,2013-02-11 02:59:00,
2013-02-10 21:04:00,42.3,40.1,28.40,South,180,2.0,6.9,92,0.00,,,0.00,WUHU216HW,2013-02-11 03:04:00,
2013-02-10 21:09:00,42.1,40.0,28.40,SE,135,2.5,6.9,92,0.00,,,0.00,WUHU216HW,2013-02-11 03:09:00,
2013-02-10 21:14:00,42.1,40.0,28.40,SSE,158,2.5,4.9,92,0.00,,,0.00,WUHU216HW,2013-02-11 03:14:00,
2013-02-10 21:19:00,42.1,40.0,28.40,SSE,158,2.5,4.9,92,0.00,,,0.00,WUHU216HW,2013-02-11 03:19:00,
2013-02-10 22:00:00,40.7,37.7,28.41,SE,135,4.3,4.3,89,0.00,,,0.00,WUHU216HW,2013-02-11 04:00:00,
2013-02-10 22:05:00,40.3,37.4,28.42,West,270,4.7,5.4,89,0.00,,,0.00,WUHU216HW,2013-02-11 04:05:00,
2013-02-10 22:10:00,40.3,37.4,28.41,SE,135,5.4,6.7,89,0.00,,,0.00,WUHU216HW,2013-02-11 04:10:00,
2013-02-10 22:15:00,40.3,37.4,28.41,SE,135,5.4,6.7,89,0.00,,,0.00,WUHU216HW,2013-02-11 04:15:00,
2013-02-10 23:00:00,39.1,35.5,28.40,ESE,113,5.4,5.4,87,0.00,,,0.00,WUHU216HW,2013-02-11 05:00:00,
2013-02-10 23:05:00,39.1,35.2,28.40,WSW,248,5.1,6.9,86,0.00,,,0.00,WUHU216HW,2013-02-11 05:05:00,
2013-02-10 23:10:00,39.1,34.9,28.41,WSW,248,7.6,9.2,85,0.00,,,0.00,WUHU216HW,2013-02-11 05:10:00,
2013-02-10 23:15:00,38.9,34.7,28.41,SW,225,7.4,9.2,85,0.00,,,0.00,WUHU216HW,2013-02-11 05:15:00,
2013-02-10 23:20:00,38.9,34.5,28.41,West,270,3.4,8.5,84,0.00,,,0.00,WUHU216HW,2013-02-11 05:20:00,
2013-02-10 23:25:00,38.7,34.3,28.41,SSW,203,2.7,8.5,84,0.00,,,0.00,WUHU216HW,2013-02-11 05:25:00,
2013-02-10 23:30:00,38.7,34.3,28.41,SSE,158,3.1,7.4,84,0.00,,,0.00,WUHU216HW,2013-02-11 05:30:00,
2013-02-10 23:35:00,38.5,34.1,28.41,West,270,1.8,8.3,84,0.00,,,0.00,WUHU216HW,2013-02-11 05:35:00,
2013-02-10 23:40:00,38.5,34.1,28.41,South,180,4.0,8.3,84,0.00,,,0.00,WUHU216HW,2013-02-11 05:40:00,
2013-02-10 23:45:00,38.3,33.9,28.41,SSE,158,3.8,8.1,84,0.00,,,0.00,WUHU216HW,2013-02-11 05:45:00,
2013-02-10 23:50:00,38.2,33.8,28.41,SE,135,9.2,9.2,84,0.00,,,0.00,WUHU216HW,2013-02-11 05:50:00,
2013-02-10 23:55:00,38.0,33.6,28.42,WSW,248,2.0,9.2,84,0.00,,,0.00,WUHU216HW,2013-02-11 05:55:00,